"Pseudo-MPEC" for P12oZj5

Created 2026 Aug 8 23:35:08 UT using Find_Orb

Click here for an explanation of pseudo-MPECs

 
 Astrometry: 
     P12oZj5*0C2026 08 08.45233921 06 39.951-15 05 27.39   ~88Co 19.96wXNEOCPF51
     P12oZj5 0C2026 08 08.46388821 06 39.308-15 04 05.11   ~88Co 20.09wXNEOCPF51
     P12oZj5 0C2026 08 08.47501521 06 38.702-15 02 45.79   ~88Co 20.08wXNEOCPF51
     P12oZj5 0C2026 08 08.48614021 06 38.092-15 01 26.07   ~88Co 20.01wXNEOCPF51
     P12oZj5 0C2026 08 08.56119421 06 34.294-14 52 23.77   ~88Go 19.67GVNEOCPF51
     P12oZj5 0C2026 08 08.56201521 06 34.254-14 52 17.63   ~88Go 19.83GVNEOCPF51
     P12oZj5 KB2026 08 08.90131121 06 31.637-14 11 08.38   ~88MK 19.3 GXNEOCP595
     P12oZj5 KB2026 08 08.90891321 06 31.200-14 10 11.89   ~88MK 18.9 GXNEOCP595
     P12oZj5 KB2026 08 08.91651421 06 30.888-14 09 15.52   ~88MK 19.5 GXNEOCP595
     P12oZj5 KB2026 08 08.92571 21 06 30.34 -14 08 05.6    ~88Mo 18.7 VZNEOCP106
     P12oZj5 KB2026 08 08.92817 21 06 30.19 -14 07 46.9    ~88Mo 18.3 VZNEOCP106
     P12oZj5 KB2026 08 08.93063 21 06 30.15 -14 07 28.8    ~88Mo 18.5 VZNEOCP106
     P12oZj5 KB2026 08 08.93309 21 06 30.01 -14 07 11.6    ~88Mo 17.9 VZNEOCP106

Station data:
(106) Črni Vrh  (N45.945905 E14.071100)  Slovenia.  Observer J. Skvarč. 0.6-m
   f/3.3 Deltagraph + CCD.
(595) Farra d'Isonzo  (N45.915731 E13.525780)  Italy.  Observers S. Aschi, E.
   Pettarin, G. Panterotto. Measurers S. Aschi, E. Pettarin. 0.40-m f/5.15
   reflector + CCD.
(F51) Pan-STARRS 1, Haleakala  (N20.707234 W156.255910)  US/Hawaii.
   Observers J. Herman, T. Lowe, P. Minguez, A. Schultz, I. Smith. Measurers
   K. Chambers, T. de Boer, J. Fairlamb, H. Gao, M. Huber, C.-C. Lin, E.
   Magnier, Y. Ramanjooloo, R. Wainscoat, R. Weryk. 1.8-m Ritchey-Chrétien +
   CCD.

Orbital elements:  P12oZj5
   Perihelion 2026 Sep 27.491307 +/- 0.0707 TT = 11:47:28.9 (JD 2461310.991307)
Epoch 2026 Aug  9.0 TT = JDT 2461261.5   Earth MOID: 0.0512   Ma: 0.0284
M 344.723436933 +/- 0.31            (J2000 ecliptic)             AutoNEOCP
n   0.308671645 +/- 0.00628         Peri.   62.776451 +/- 0.36
a   2.168394138 +/- 0.0294          Node   314.740656 +/- 0.0009
e   0.58355381 +/- 0.00722          Incl.   10.923442 +/- 0.057
P   3.19306                H 23.73  G  0.15   U  9.3
q 0.903019477 +/- 0.00392    Q 3.433768800 +/- 0.0621
From 13 observations 2026 Aug. 8 (11.5 hr); mean residual 0".45
Residuals in arcseconds: 
260808 F51  .02+  .01+    260808 F51  .01+  .04+    260808 106  .93-  .47+    
260808 F51  .05-  .06+    260808 595  .87+  .80+    260808 106  .23+  .02+    
260808 F51  .03+  .05-    260808 595  .25-  .27+    260808 106  .07-  1.3-    
260808 F51  .05-  .04+    260808 595  .50+  .47-    
260808 F51  .04+  .12-    260808 106  .48-  .31+    

Ephemerides (geocentric):
Date (UTC) HH   RA             Dec           delta  r     elong  mag " sig PA
---- --------  ------------   ------------  ------ ------ -----  --- --------
2026 08 09 00  21 06 27.754   -13 57 30.19  .10493 1.1187 177.2 19.3 .488 172
2026 08 09 01  21 06 26.749   -13 52 11.36  .10463 1.1184 177.1 19.3 .550 171
2026 08 09 02  21 06 25.739   -13 46 50.74  .10434 1.1181 177.1 19.3 .619 170
2026 08 09 03  21 06 24.724   -13 41 28.32  .10405 1.1178 177.0 19.3 .694 169
2026 08 09 04  21 06 23.705   -13 36 04.08  .10375 1.1175 176.9 19.3 .775 169
2026 08 09 05  21 06 22.681   -13 30 38.03  .10346 1.1172 176.8 19.3 .864 169
2026 08 09 06  21 06 21.652   -13 25 10.13  .10317 1.1169 176.7 19.3 .959 168
2026 08 09 07  21 06 20.618   -13 19 40.38  .10288 1.1166 176.6 19.3 1.06 168
2026 08 09 08  21 06 19.580   -13 14 08.77  .10258 1.1163 176.5 19.3 1.17 168
2026 08 09 09  21 06 18.537   -13 08 35.27  .10229 1.1159 176.4 19.3 1.29 168
2026 08 09 10  21 06 17.489   -13 02 59.89  .10200 1.1156 176.3 19.3 1.41 168
2026 08 09 11  21 06 16.436   -12 57 22.60  .10171 1.1153 176.3 19.3 1.54 168
2026 08 09 12  21 06 15.379   -12 51 43.39  .10142 1.1150 176.2 19.3 1.68 168
2026 08 09 13  21 06 14.317   -12 46 02.25  .10113 1.1147 176.1 19.3 1.83 169
2026 08 09 14  21 06 13.249   -12 40 19.16  .10084 1.1144 176.0 19.3 1.98 169
2026 08 09 15  21 06 12.177   -12 34 34.11  .10055 1.1141 175.9 19.3 2.14 169
2026 08 09 16  21 06 11.101   -12 28 47.09  .10026 1.1138 175.8 19.3 2.31 169
2026 08 09 17  21 06 10.019   -12 22 58.08  .09997 1.1135 175.7 19.3 2.49 169
2026 08 09 18  21 06 08.932   -12 17 07.06  .09968 1.1132 175.6 19.3 2.67 169
2026 08 09 19  21 06 07.840   -12 11 14.03  .09940 1.1129 175.5 19.3 2.87 169
2026 08 09 20  21 06 06.743   -12 05 18.96  .09911 1.1126 175.4 19.3 3.07 170
2026 08 09 21  21 06 05.642   -11 59 21.85  .09882 1.1123 175.3 19.3 3.28 170
2026 08 09 22  21 06 04.535   -11 53 22.67  .09853 1.1120 175.2 19.3 3.50 170
2026 08 09 23  21 06 03.423   -11 47 21.42  .09825 1.1117 175.1 19.3 3.73 170
2026 08 10 00  21 06 02.306   -11 41 18.08  .09796 1.1114 175.0 19.3 3.97 170
2026 08 10 01  21 06 01.184   -11 35 12.63  .09768 1.1111 174.9 19.3 4.22 170
2026 08 10 02  21 06 00.057   -11 29 05.05  .09739 1.1108 174.8 19.3 4.48 171
2026 08 10 03  21 05 58.925   -11 22 55.34  .09711 1.1105 174.7 19.3 4.74 171
2026 08 10 04  21 05 57.787   -11 16 43.48  .09682 1.1101 174.6 19.3 5.02 171
2026 08 10 05  21 05 56.645   -11 10 29.45  .09654 1.1098 174.5 19.3 5.31 171
2026 08 10 06  21 05 55.497   -11 04 13.23  .09625 1.1095 174.4 19.3 5.60 171
2026 08 10 07  21 05 54.344   -10 57 54.82  .09597 1.1092 174.3 19.3 5.91 171
2026 08 10 08  21 05 53.186   -10 51 34.19  .09569 1.1089 174.2 19.3 6.22 171
2026 08 10 09  21 05 52.022   -10 45 11.32  .09540 1.1086 174.1 19.3 6.55 171
2026 08 10 10  21 05 50.853   -10 38 46.21  .09512 1.1083 174.0 19.3 6.89 172
2026 08 10 11  21 05 49.679   -10 32 18.84  .09484 1.1080 173.9 19.3 7.24 172
2026 08 10 12  21 05 48.499   -10 25 49.18  .09456 1.1077 173.8 19.3 7.60 172
2026 08 10 13  21 05 47.314   -10 19 17.22  .09428 1.1074 173.7 19.3 7.97 172
2026 08 10 14  21 05 46.124   -10 12 42.95  .09400 1.1071 173.6 19.3 8.35 172
2026 08 10 15  21 05 44.928   -10 06 06.35  .09372 1.1068 173.5 19.3 8.74 172
2026 08 10 16  21 05 43.727   -09 59 27.41  .09344 1.1065 173.4 19.3 9.15 172
2026 08 10 17  21 05 42.520   -09 52 46.09  .09316 1.1062 173.3 19.3 9.56 172
2026 08 10 18  21 05 41.308   -09 46 02.40  .09288 1.1059 173.2 19.3 10.0 172
2026 08 10 19  21 05 40.090   -09 39 16.30  .09260 1.1056 173.1 19.3 10.4 172
2026 08 10 20  21 05 38.866   -09 32 27.79  .09233 1.1053 173.0 19.3 10.9 173
2026 08 10 21  21 05 37.637   -09 25 36.84  .09205 1.1050 172.9 19.3 11.4 173
2026 08 10 22  21 05 36.403   -09 18 43.44  .09177 1.1047 172.7 19.3 11.8 173
2026 08 10 23  21 05 35.162   -09 11 47.57  .09150 1.1044 172.6 19.3 12.3 173